PST,Max TemperatureF,Mean TemperatureF,Min TemperatureF,Max Dew PointF,MeanDew PointF,Min DewpointF,Max Humidity, Mean Humidity, Min Humidity, Max Sea Level PressureIn, Mean Sea Level PressureIn, Min Sea Level PressureIn, Max VisibilityMiles, Mean VisibilityMiles, Min VisibilityMiles, Max Wind SpeedMPH, Mean Wind SpeedMPH, Max Gust SpeedMPH,PrecipitationIn, CloudCover, Events, WindDirDegrees
2012-2-1,53,48,44,48,45,43,100,91,72,30.26,30.22,30.16,10,8,1,12,6,,0.06,5,,155
2012-2-2,62,48,35,39,35,23,100,64,30,30.22,30.08,29.97,10,10,10,8,2,,0.00,0,,307
2012-2-3,125,82,39,86,37,23,93,61,34,30.08,30.04,30.02,10,10,10,10,3,,0.00,0,,91
2012-2-4,73,58,44,55,38,28,71,46,29,30.13,30.10,30.08,10,10,10,12,7,,0.00,0,,121
2012-2-5,91,68,46,82,41,28,75,47,29,30.13,30.09,30.04,10,10,10,12,7,,0.00,0,,116
2012-2-6,100,76,51,75,46,27,56,38,24,30.04,29.94,29.82,10,10,10,13,9,,0.00,0,,108
2012-2-7,87,68,48,57,44,36,93,64,33,30.05,29.92,29.83,10,10,6,14,6,20,0.02,6,,151
2012-2-8,123,84,46,88,56,43,100,74,52,30.26,30.19,30.13,10,10,10,10,3,,0.00,1,,332
2012-2-9,122,88,53,90,55,41,86,65,48,30.31,30.27,30.19,10,10,10,10,6,,0.00,0,,114
2012-2-10,60,53,46,52,44,39,94,71,52,30.21,30.15,30.07,10,10,5,13,6,,0.00,5,,154
2012-2-11,55,48,42,48,45,41,100,85,67,30.06,30.03,29.98,10,10,10,7,3,,0.00,6,,233
2012-2-12,55,46,37,46,43,37,100,84,62,30.04,30.00,29.97,10,9,0,10,2,,0.10,5,,207
2012-2-13,48,42,37,43,40,37,100,88,66,29.97,29.91,29.86,10,8,0,12,6,18,0.59,6,,194
2012-2-14,53,44,35,43,39,36,100,81,58,30.06,30.01,29.95,10,10,1,13,3,,0.00,3,,174
2012-2-15,57,45,33,39,30,23,93,59,31,30.16,30.04,29.96,10,10,3,15,6,20,0.03,1,,5
2012-2-16,62,48,33,36,27,21,75,44,23,30.25,30.20,30.17,10,10,10,10,4,,0.00,0,,5
2012-2-17,60,48,37,39,33,27,76,53,36,30.27,30.22,30.17,10,10,10,12,5,,0.00,0,,130
2012-2-18,53,43,33,46,40,32,100,77,62,30.19,30.12,30.07,10,10,8,14,6,,0.00,3,,116
2012-2-19,53,44,35,37,32,27,93,66,38,30.09,30.06,30.03,10,10,10,10,4,,0.00,0,,166
2012-2-20,53,48,42,39,36,30,76,63,54,30.19,30.14,30.09,10,9,1,12,4,,0.00,4,,71
2012-2-21,64,50,37,46,41,36,100,71,45,30.28,30.24,30.18,10,10,10,9,2,,0.00,0,,305
2012-2-22,66,54,42,45,42,37,100,66,39,30.30,30.22,30.11,10,10,10,8,1,,0.00,0,,288
2012-2-23,69,54,39,39,32,21,81,42,19,30.07,30.02,29.97,10,10,10,12,3,20,0.00,0,,332
2012-2-24,68,56,44,46,37,23,55,45,33,30.10,30.06,30.00,10,10,10,12,5,18,0.00,0,,161
2012-2-25,57,46,33,39,32,21,100,60,28,30.29,30.21,30.14,10,10,10,10,4,20,0.00,0,,338
2012-2-26,53,42,30,28,21,12,75,43,26,30.15,29.96,29.82,10,10,10,10,2,,0.00,0,,184
2012-2-27,51,42,33,37,32,27,87,68,44,29.84,29.81,29.79,10,10,8,10,3,,0.00,5,,157
2012-2-28,50,42,35,36,33,32,87,71,54,30.18,30.10,29.92,10,10,10,16,9,22,0.00,4,,165
2012-2-29,44,40,37,43,39,34,100,89,66,30.19,30.10,30.01,10,7,1,25,14,38,0.78,8,,190